This is the latest recevied weather packets stored in our database for station/object DK9XR-14. If no packets are shown the sender has not sent any weather packets the latest 1 day(s).
| Time | Temp. | Humidity | Pressure | Rain* | Wind** | Luminosity | Snow |
|---|---|---|---|---|---|---|---|
| 1777994200 | 16.67° C | 65% | 1008.7 hPa | 0 mm | 0.89 m/s, 312° | - | - |
| 1777993898 | 16.67° C | 65% | 1008.6 hPa | 0 mm | 0.89 m/s, 13° | - | - |
| 1777993596 | 16.67° C | 66% | 1008.7 hPa | 0 mm | 0.45 m/s, 345° | - | - |
| 1777993298 | 16.67° C | 65% | 1008.7 hPa | 0 mm | 1.79 m/s, 44° | - | - |
| 1777992997 | 16.67° C | 66% | 1008.8 hPa | 0 mm | 1.79 m/s, 327° | - | - |
| 1777992695 | 16.67° C | 66% | 1008.9 hPa | 0 mm | 1.34 m/s, 289° | - | - |
| 1777992396 | 16.67° C | 66% | 1008.8 hPa | 0 mm | 1.79 m/s, 331° | - | - |
| 1777992094 | 16.67° C | 67% | 1008.8 hPa | 0 mm | 1.79 m/s, 310° | - | - |
| 1777991795 | 16.67° C | 67% | 1008.8 hPa | 0 mm | 1.34 m/s, 327° | - | - |
| 1777991495 | 16.67° C | 68% | 1008.8 hPa | 0 mm | 1.34 m/s, 299° | - | - |
| 1777991193 | 16.67° C | 69% | 1008.9 hPa | 0 mm | 1.79 m/s, 310° | - | - |
| 1777990890 | 16.67° C | 69% | 1008.7 hPa | 0 mm | 0.89 m/s, 312° | - | - |
| 1777990590 | 17.22° C | 70% | 1008.8 hPa | 0 mm | 0.45 m/s, 309° | - | - |
| 1777990291 | 17.22° C | 69% | 1008.7 hPa | 0 mm | 0.89 m/s, 305° | - | - |
| 1777989989 | 17.22° C | 68% | 1008.7 hPa | 0 mm | 0.89 m/s, 324° | - | - |
| 1777989690 | 17.22° C | 70% | 1008.8 hPa | 0 mm | 0.89 m/s, 353° | - | - |
| 1777989389 | 16.67° C | 69% | 1008.8 hPa | 0 mm | 1.79 m/s, 357° | - | - |
| 1777989088 | 16.67° C | 69% | 1008.8 hPa | 0 mm | 1.34 m/s, 353° | - | - |
| 1777988781 | 16.67° C | 68% | 1008.9 hPa | 0 mm | 2.24 m/s, 327° | - | - |
| 1777988480 | 16.67° C | 70% | 1008.9 hPa | 0 mm | 1.79 m/s, 334° | - | - |
| 1777988178 | 16.67° C | 72% | 1009 hPa | 0 mm | 1.34 m/s, 317° | - | - |
| 1777987878 | 16.11° C | 71% | 1009.1 hPa | 0 mm | 1.79 m/s, 343° | - | - |
| 1777987575 | 16.11° C | 73% | 1009.3 hPa | 0.25 mm | 0.89 m/s, 306° | - | - |
| 1777987277 | 16.11° C | 74% | 1009.4 hPa | 0.25 mm | 0.89 m/s, 310° | - | - |
| 1777986975 | 16.11° C | 75% | 1009.4 hPa | 0.25 mm | 0.89 m/s, 340° | - | - |
* Rain latest hour (hover to see other rain measurements)
** Current wind speed in m/s (hover to see current wind gust speed)